Regional Weather Roundup
Issued by NWS

Home | Current Version | Previous Version | Graphics & Text | Print | Product List | Glossary On
Versions: 1 2 3 4 5 6 7 8 9 10 11 12 13 14 15 16 17 18 19 20 21 22 23 24 25 26 27 28 29 30 31 32 33 34 35 36 37 38 39 40 41 42 43 44 45 46 47 48 49 50
000
ASUS45 KPSR 260200
RWRAZ

PRELIMINARY ARIZONA REGIONAL HOURLY WEATHER ROUNDUP
NATIONAL WEATHER SERVICE PHOENIX AZ
700 PM MST TUE NOV 25 2014

NOTE: FAIR INDICATES FEW OR NO CLOUDS BELOW 12,000 FEET WITH NO
SIGNIFICANT WEATHER AND/OR OBSTRUCTIONS TO VISIBILITY.

AZZ001>003-036-260300-
NORTHWEST ARIZONA

CITY           SKY/WX    TMP DP  RH WIND       PRES   REMARKS
KINGMAN        CLEAR     41   6  23 E6        30.37S
$$

AZZ004>008-015-016-018-260300-
NORTH CENTRAL ARIZONA

CITY           SKY/WX    TMP DP  RH WIND       PRES   REMARKS
GRAND CANYON   CLEAR     31   7  36 CALM      30.42R
PRESCOTT       CLEAR     47   9  21 W8        30.37R
FLAGSTAFF      NOT AVBL
PAYSON         CLEAR     46  -4  12 CALM      30.37R
PAGE           CLEAR     43  11  27 CALM      30.34R
$$

AZZ009>014-017-260300-
NORTHEAST ARIZONA

CITY           SKY/WX    TMP DP  RH WIND       PRES   REMARKS
WINSLOW        NOT AVBL
SAINT JOHNS    MOCLDY    33   4  29 S3        30.35F
SHOW LOW       PTCLDY    36  -4  18 E6        30.40S WCI  31
$$

AZZ023-260300-
GREATER PHOENIX AREA

CITY           SKY/WX    TMP DP  RH WIND       PRES   REMARKS
PHOENIX        CLEAR     61   9  12 CALM      30.28S
BUCKEYE          N/A     52   9  17 CALM      30.30S
GLENDALE       CLEAR     55  14  19 SE5       30.30F
LUKE AFB       CLEAR     58  10  14 CALM      30.28S
DEER VALLEY    CLEAR     56   2  11 CALM      30.29S
SCOTTSDALE     CLEAR     59   9  13 CALM      30.31S
MESA-FALCON    CLEAR     61   3  10 S7        30.29S
MESA-GATEWAY   CLEAR     55   7  14 CALM      30.32R
CHANDLER       CLEAR     57  12  17 VRB3      30.30R
$$

AZZ027-028-260300-
SOUTHWEST MARICOPA COUNTY AND PINAL COUNTY

CITY           SKY/WX    TMP DP  RH WIND       PRES   REMARKS
CASA GRANDE    CLEAR     54   1  12 CALM      30.31R
GILA BEND      CLEAR     55   1  11 S6        30.29S
$$

AZZ503-504-507>509-260300-
SOUTHEAST ARIZONA

CITY           SKY/WX    TMP DP  RH WIND       PRES   REMARKS
TUCSON         CLEAR     53   3  13 SW5       30.33R
DAVIS-MONTHAN  CLEAR     54   2  12 W8        30.31R
RYAN FIELD       N/A     63  21  20 SW5       30.33R
NOGALES        CLEAR     45   0  15 CALM      30.30S
SIERRA VISTA   CLEAR     46   0  14 SW8       30.33S
SAFFORD        CLEAR     43   3  19 N5        30.30S
$$

AZZ020-021-025-026-031-260300-
SOUTHWEST ARIZONA

CITY           SKY/WX    TMP DP  RH WIND       PRES   REMARKS
YUMA           NOT AVBL
$$

CAZ031-033-041-043-047-048-061-260300-
SOUTHERN CALIFORNIA

CITY           SKY/WX    TMP DP  RH WIND       PRES   REMARKS
DOWNTOWN L.A.  CLEAR     67  35  30 CALM      30.26S
L.A. AIRPORT   CLEAR     65  50  58 W6        30.27S
SAN DIEGO      CLEAR     69  23  17 VRB3      30.28R
BURBANK        CLEAR     68  21  16 CALM      30.27R
ONTARIO        CLEAR     70  15  12 NW3       30.28R
RIVERSIDE      CLEAR     69  17  13 CALM      30.28R
PALM SPRINGS   CLEAR     64  31  28 CALM      30.34R
EL CENTRO NAS  CLEAR     61  13  15 CALM      30.30S
IMPERIAL       CLEAR     62  19  19 CALM      30.30S
BLYTHE         CLEAR     61  16  17 CALM      30.31S
$$

NVZ020-UTZ003-260300-
SOUTHERN NEVADA-UTAH

CITY           SKY/WX    TMP DP  RH WIND       PRES   REMARKS
LAS VEGAS      NOT AVBL
SALT LAKE CITY LGT RAIN  44  31  60 SE9       30.29S
$$

NMZ009-TXZ055-260300-
NEW MEXICO-WEST TEXAS

CITY           SKY/WX    TMP DP  RH WIND       PRES   REMARKS
ALBUQUERQUE    PTCLDY    43   3  19 NW7       30.26S
EL PASO        CLEAR     49   7  18 W12       30.28S
$$


........................KEY........................
SKY/WX - SKY CONDITION/WEATHER
TMP    - TEMPERATURE IN FAHRENHEIT
DP     - DEW POINT IN FAHRENHEIT
RH     - RELATIVE HUMIDITY IN PERCENT
WIND   - DIRECTION AND SPEED IN MILES PER HOUR (MPH)
VRB    - VARIABLE WIND DIRECTION
PRES   - MEAN SEA LEVEL PRESSURE IN INCHES OF MERCURY
         F - FALLING PRESSURE   R - RISING PRESSURE
         S - STEADY PRESSURE
VSB    - VISIBILITY IN MILES
HX     - HEAT INDEX IN FAHRENHEIT
WCI    - WIND CHILL INDEX IN FAHRENHEIT
TC     - TEMPERATURE IN CELSIUS WHICH IS ALSO KNOWN AS
         TEMPERATURE IN CENTIGRADE
AFB    - AIR FORCE BASE
         LUKE AFB IS LUKE AIR FORCE BASE
         DAVIS-MONTHAN IS DAVIS-MONTHAN AIR FORCE BASE
NAS    - NAVAL AIR STATION
         EL CENTRO NAS IS EL CENTRO NAVAL AIR STATION
N/A    - NOT AVAILABLE


USA.gov is the U.S. government's official web portal to all federal, state and local government web resources and services.